Find Starlink 1284

NORAD ID: 45390 Int'l Des: 2020-019 Owner: SPXS Country: US Constellation: starlink operational
LEOCIRCULAR

Live Position

Loading 3D Globe...

About Starlink 1284

Description loading...

Upcoming Passes

Passes for default location (London). Set your location on the main map for personalized predictions.

Altitude History

Loading altitude history...

Two-Line Element Set

1 45390U 20019AG 26106.84913081 .00058473 00000-0 74754-3 0 9999
2 45390 53.0456 306.4157 0004282 187.8009 172.2936 15.58684408336169
Epoch: Apr 16, 2026 • Age: 20 hours

Current Status

Altitude 395.3 km
Velocity 7.67 km/s
Sub-Earth Point -2.94°S, 151.17°W
Launch Date Mar 18, 2020
Age 6 years
Type internet

Technical Details

Classification Payload
Mass 260.00 kg
Dry Mass 248.00 kg
Total Mass 260.00 kg
Length 0.20 m
Diameter 2.80 m
Span 9.00 m
Shape Box + pan
Manufacturer SPXS
Bus Type Starlink
Phase Status In Orbit
Owner/State SPXS/US

Most Searched